This demonstration page uses our WeatherBlox Daily Observations layout. Learn more.

Left ArrowRight Arrow

Hourly Observations for June 15, 2018

Temp ( °F °C ) Dew Point ( °F °C ) Humidity (%) Winds ( mph kmh ) Pressure ( in mb ) Visibility ( mi km ) Precip ( " mm )
12:54 am 00:54 Clear 83 28.3 67 19.4 59 59 S 20 31 29.73 1007 10 16 0.00 0.00
1:54 am 01:54 Clear 82 27.8 67 19.4 60 60 S 18 30 29.73 1007 10 16 0.00 0.00
2:54 am 02:54 Clear 82 27.8 66 18.9 58 58 S 22 35 29.72 1006 10 16 0.00 0.00
3:54 am 03:54 Clear 81 27.2 65 18.3 58 58 S 17 28 29.71 1006 10 16 0.00 0.00
4:54 am 04:54 Clear 81 27.2 64 17.8 57 57 S 15 24 29.71 1006 10 16 0.00 0.00
5:54 am 05:54 Clear 80 26.7 63 17.2 56 56 S 16 26 29.71 1006 10 16 0.00 0.00
6:54 am 06:54 Sunny 79 26.1 63 17.2 58 58 S 14 22 29.73 1007 10 16 0.00 0.00
7:54 am 07:54 Sunny 82 27.8 64 17.8 55 55 SSW 13 20 29.74 1007 10 16 0.00 0.00
8:54 am 08:54 Sunny 83 28.3 64 17.8 53 53 SSW 17 28 29.72 1007 10 16 0.00 0.00
9:54 am 09:54 Sunny 86 30 64 17.8 48 48 S 21 33 29.70 1006 10 16 0.00 0.00
10:54 am 10:54 Sunny 90 32.2 65 18.3 44 44 S 20 31 29.68 1005 10 16 0.00 0.00
11:54 am 11:54 Sunny 93 33.9 64 17.8 38 38 SSW 16 26 29.69 1005 10 16 0.00 0.00
12:54 pm 12:54 Sunny 96 35.6 64 17.8 35 35 S 21 33 29.70 1006 10 16 0.00 0.00
1:54 pm 13:54 Sunny 98 36.7 63 17.2 32 32 S 21 33 29.67 1005 10 16 0.00 0.00
2:54 pm 14:54 Sunny 100 37.8 63 17.2 30 30 S 20 31 29.65 1004 10 16 0.00 0.00
3:54 pm 15:54 Sunny 100 37.8 63 17.2 30 30 S 18 30 29.65 1004 10 16 0.00 0.00
4:54 pm 16:54 Sunny 100 37.8 63 17.2 30 30 S 22 35 29.64 1004 10 16 0.00 0.00
5:54 pm 17:54 Sunny 99 37.2 63 17.2 31 31 S 20 31 29.63 1003 10 16 0.00 0.00
6:54 pm 18:54 Sunny 96 35.6 64 17.8 35 35 S 18 30 29.63 1003 10 16 0.00 0.00
7:54 pm 19:54 Sunny 93 33.9 64 17.8 38 38 S 15 24 29.64 1004 10 16 0.00 0.00
8:54 pm 20:54 Sunny 90 32.2 65 18.3 44 44 SSE 17 28 29.66 1004 10 16 0.00 0.00
9:54 pm 21:54 Clear 88 31.1 68 20 52 52 S 17 28 29.68 1005 10 16 0.00 0.00
10:54 pm 22:54 Clear 87 30.6 68 20 53 53 S 20 31 29.70 1006 10 16 0.00 0.00
11:54 pm 23:54 Clear 85 29.4 68 20 57 57 S 20 31 29.70 1006 10 16 0.00 0.00

Powered by AerisWeather